• In Belarus
  • List of Countries
  • For 7 days
  • Water Temperature
  • Satellite Maps
  • Weather Map
  • Weather Widgets
  • user-avatar
    Login

    Hourly Weather Chillupar

    Today, 18 March, Monday

    Time Temperature Precipitation Wind Pressure Humidity
    00:00 +23°C° 0 mm 2 mps 753 mmHg 37%
    01:00 +23°C° 0.2 mm 2 mps 752 mmHg 41%
    02:00 +21°C° 0.2 mm 2 mps 752 mmHg 45%
    03:00 +21°C° 0.2 mm 1 mps 752 mmHg 49%
    04:00 +21°C° 0 mm 1 mps 752 mmHg 50%
    05:00 +21°C° 0 mm 1 mps 752 mmHg 50%
    06:00 +18°C° 0 mm 2 mps 752 mmHg 56%
    07:00 +21°C° 0.1 mm 1 mps 753 mmHg 50%
    08:00 +23°C° 0.1 mm 1 mps 753 mmHg 45%
    09:00 +25°C° 0.1 mm 1 mps 754 mmHg 40%
    10:00 +27°C° 0 mm 2 mps 754 mmHg 35%
    11:00 +29°C° 0 mm 2 mps 754 mmHg 30%
    12:00 +31°C° 0 mm 2 mps 754 mmHg 26%
    13:00 +33°C° 0 mm 3 mps 753 mmHg 24%
    14:00 +33°C° 0 mm 3 mps 752 mmHg 22%
    15:00 +34°C° 0 mm 3 mps 752 mmHg 21%
    16:00 +33°C° 0 mm 3 mps 751 mmHg 22%
    17:00 +31°C° 0 mm 3 mps 751 mmHg 24%
    18:00 +29°C° 0 mm 2 mps 751 mmHg 27%
    19:00 +28°C° 0 mm 2 mps 751 mmHg 28%
    20:00 +26°C° 0 mm 2 mps 751 mmHg 29%
    21:00 +25°C° 0 mm 2 mps 751 mmHg 31%
    22:00 +24°C° 0 mm 2 mps 751 mmHg 32%
    23:00 +24°C° 0 mm 2 mps 751 mmHg 33%

    Tomorrow, 19 March, Tuesday

    Time Temperature Precipitation Wind Pressure Humidity
    00:00 +23°C° 0 mm 2 mps 751 mmHg 35%
    01:00 +23°C° 0 mm 2 mps 750 mmHg 35%
    02:00 +21°C° 0 mm 2 mps 750 mmHg 36%
    03:00 +21°C° 0 mm 2 mps 750 mmHg 37%
    04:00 +20°C° 0 mm 2 mps 750 mmHg 39%
    05:00 +20°C° 0 mm 2 mps 750 mmHg 40%
    06:00 +19°C° 0 mm 2 mps 750 mmHg 41%
    07:00 +21°C° 0 mm 2 mps 750 mmHg 39%
    08:00 +24°C° 0 mm 2 mps 751 mmHg 36%
    09:00 +26°C° 0 mm 3 mps 751 mmHg 34%
    10:00 +28°C° 0 mm 3 mps 751 mmHg 30%
    11:00 +30°C° 0 mm 3 mps 751 mmHg 25%
    12:00 +33°C° 0 mm 4 mps 751 mmHg 21%
    13:00 +34°C° 0 mm 4 mps 750 mmHg 19%
    14:00 +35°C° 0 mm 5 mps 750 mmHg 17%
    15:00 +36°C° 0 mm 5 mps 749 mmHg 15%
    16:00 +34°C° 0 mm 4 mps 749 mmHg 17%
    17:00 +33°C° 0 mm 3 mps 748 mmHg 20%
    18:00 +31°C° 0 mm 3 mps 748 mmHg 23%
    19:00 +29°C° 0 mm 2 mps 749 mmHg 24%
    20:00 +28°C° 0 mm 2 mps 749 mmHg 26%
    21:00 +26°C° 0 mm 2 mps 749 mmHg 27%
    22:00 +25°C° 0 mm 2 mps 749 mmHg 28%
    23:00 +25°C° 0 mm 2 mps 750 mmHg 30%

    Day after tomorrow, 20 March, Wednesday

    Time Temperature Precipitation Wind Pressure Humidity
    00:00 +24°C° 0 mm 2 mps 750 mmHg 31%
    01:00 +24°C° 0 mm 2 mps 749 mmHg 33%
    02:00 +23°C° 0 mm 2 mps 749 mmHg 35%
    03:00 +21°C° 0 mm 2 mps 749 mmHg 37%
    04:00 +21°C° 0 mm 2 mps 749 mmHg 39%
    05:00 +20°C° 0 mm 2 mps 749 mmHg 41%
    06:00 +21°C° 0 mm 1 mps 749 mmHg 43%
    07:00 +23°C° 0 mm 1 mps 750 mmHg 40%
    08:00 +25°C° 0 mm 2 mps 750 mmHg 36%
    09:00 +27°C° 0 mm 2 mps 751 mmHg 33%
    10:00 +29°C° 0 mm 2 mps 751 mmHg 29%
    11:00 +33°C° 0 mm 3 mps 751 mmHg 25%
    12:00 +35°C° 0 mm 3 mps 751 mmHg 21%
    13:00 +36°C° 0 mm 4 mps 750 mmHg 18%
    14:00 +37°C° 0 mm 5 mps 749 mmHg 16%
    15:00 +39°C° 0 mm 6 mps 749 mmHg 13%
    16:00 +36°C° 0 mm 5 mps 749 mmHg 15%
    17:00 +35°C° 0 mm 4 mps 749 mmHg 17%
    18:00 +34°C° 0 mm 3 mps 748 mmHg 19%
    19:00 +31°C° 0 mm 2 mps 749 mmHg 20%
    20:00 +29°C° 0 mm 2 mps 749 mmHg 20%
    21:00 +28°C° 0 mm 2 mps 750 mmHg 21%
    22:00 +27°C° 0 mm 1 mps 750 mmHg 22%
    23:00 +27°C° 0 mm 1 mps 750 mmHg 23%

    21 March, Thursday

    Time Temperature Precipitation Wind Pressure Humidity
    00:00 +26°C° 0 mm 1 mps 750 mmHg 23%
    01:00 +25°C° 0 mm 1 mps 749 mmHg 25%
    02:00 +25°C° 0 mm 2 mps 749 mmHg 27%
    03:00 +24°C° 0 mm 2 mps 748 mmHg 28%
    04:00 +23°C° 0 mm 2 mps 749 mmHg 30%
    05:00 +23°C° 0 mm 1 mps 749 mmHg 32%
    06:00 +22°C° 0 mm 1 mps 749 mmHg 33%
    07:00 +24°C° 0 mm 1 mps 750 mmHg 31%
    08:00 +26°C° 0 mm 1 mps 751 mmHg 28%
    09:00 +29°C° 0 mm 2 mps 752 mmHg 25%
    10:00 +31°C° 0 mm 2 mps 752 mmHg 22%
    11:00 +35°C° 0 mm 2 mps 751 mmHg 20%
    12:00 +37°C° 0 mm 2 mps 751 mmHg 17%
    13:00 +38°C° 0 mm 2 mps 750 mmHg 16%
    14:00 +38°C° 0 mm 2 mps 749 mmHg 15%
    15:00 +39°C° 0 mm 2 mps 748 mmHg 14%
    16:00 +38°C° 0 mm 2 mps 748 mmHg 16%
    17:00 +37°C° 0 mm 2 mps 748 mmHg 18%
    18:00 +35°C° 0 mm 1 mps 748 mmHg 20%
    19:00 +34°C° 0 mm 2 mps 748 mmHg 21%
    20:00 +31°C° 0 mm 2 mps 749 mmHg 22%
    21:00 +30°C° 0 mm 3 mps 749 mmHg 23%
    22:00 +29°C° 0 mm 3 mps 749 mmHg 24%
    23:00 +28°C° 0 mm 3 mps 750 mmHg 25%

    22 March, Friday

    Time Temperature Precipitation Wind Pressure Humidity
    00:00 +27°C° 0 mm 3 mps 750 mmHg 27%
    01:00 +27°C° 0 mm 2 mps 749 mmHg 27%
    02:00 +26°C° 0 mm 1 mps 749 mmHg 28%
    03:00 +25°C° 0 mm 1 mps 748 mmHg 29%
    04:00 +25°C° 0 mm 1 mps 749 mmHg 29%
    05:00 +24°C° 0 mm 1 mps 749 mmHg 30%
    06:00 +24°C° 0 mm 1 mps 749 mmHg 30%
    07:00 +26°C° 0 mm 1 mps 750 mmHg 28%
    08:00 +28°C° 0 mm 1 mps 751 mmHg 25%
    09:00 +30°C° 0 mm 1 mps 751 mmHg 23%
    10:00 +32°C° 0 mm 1 mps 751 mmHg 20%
    11:00 +36°C° 0 mm 2 mps 751 mmHg 18%
    12:00 +38°C° 0 mm 2 mps 751 mmHg 15%
    13:00 +39°C° 0 mm 3 mps 750 mmHg 14%
    14:00 +40°C° 0 mm 4 mps 749 mmHg 13%
    15:00 +41°C° 0 mm 5 mps 749 mmHg 12%
    16:00 +40°C° 0 mm 5 mps 748 mmHg 14%
    17:00 +38°C° 0 mm 4 mps 748 mmHg 16%
    18:00 +36°C° 0 mm 4 mps 748 mmHg 18%
    19:00 +34°C° 0 mm 3 mps 748 mmHg 19%
    20:00 +31°C° 0 mm 3 mps 749 mmHg 20%
    21:00 +29°C° 0 mm 3 mps 750 mmHg 21%
    22:00 +29°C° 0 mm 3 mps 750 mmHg 23%
    23:00 +28°C° 0 mm 3 mps 750 mmHg 24%

    23 March, Saturday

    Time Temperature Precipitation Wind Pressure Humidity
    00:00 +27°C° 0 mm 3 mps 750 mmHg 26%
    01:00 +26°C° 0 mm 3 mps 749 mmHg 26%
    02:00 +26°C° 0 mm 3 mps 749 mmHg 27%
    03:00 +25°C° 0 mm 3 mps 748 mmHg 27%
    04:00 +24°C° 0 mm 3 mps 749 mmHg 29%
    05:00 +24°C° 0 mm 2 mps 749 mmHg 30%
    06:00 +23°C° 0 mm 2 mps 749 mmHg 31%
    07:00 +25°C° 0 mm 3 mps 750 mmHg 29%
    08:00 +27°C° 0 mm 3 mps 750 mmHg 27%
    09:00 +29°C° 0 mm 4 mps 751 mmHg 25%
    10:00 +32°C° 0 mm 4 mps 751 mmHg 21%
    11:00 +34°C° 0 mm 5 mps 751 mmHg 16%
    12:00 +38°C° 0 mm 6 mps 750 mmHg 12%
    13:00 +38°C° 0 mm 6 mps 750 mmHg 11%
    14:00 +39°C° 0 mm 6 mps 749 mmHg 10%
    15:00 +40°C° 0 mm 6 mps 748 mmHg 9%
    16:00 +37°C° 0 mm 5 mps 748 mmHg 10%
    17:00 +36°C° 0 mm 4 mps 748 mmHg 12%
    18:00 +35°C° 0 mm 3 mps 748 mmHg 14%
    19:00 +33°C° 0 mm 3 mps 748 mmHg 15%
    20:00 +30°C° 0 mm 3 mps 749 mmHg 17%
    21:00 +28°C° 0 mm 3 mps 749 mmHg 19%
    22:00 +28°C° 0 mm 3 mps 749 mmHg 20%
    23:00 +27°C° 0 mm 4 mps 749 mmHg 21%
    Show more